When you browse on this site, cookies collect data to enhance your experience and personalize the content and advertising you see.
Visit our Privacy Policy to learn more. By continuing to use the site, you agree to this use of cookies and data.

Hourly Weather Kontuzla

Today, 5 July, Sunday

Time Temperature Precipitation Wind Pressure Humidity
00:00 +20°C° 0.2 mm 2 mps 747 mmHg 91%
01:00 +20°C° 0.2 mm 2 mps 747 mmHg 93%
02:00 +19°C° 0 mm 2 mps 747 mmHg 93%
03:00 +19°C° 0 mm 2 mps 747 mmHg 93%
04:00 +19°C° 0 mm 2 mps 747 mmHg 94%
05:00 +20°C° 0.1 mm 2 mps 746 mmHg 92%
06:00 +21°C° 0.1 mm 3 mps 746 mmHg 90%
07:00 +22°C° 0.1 mm 3 mps 746 mmHg 88%
08:00 +24°C° 0.8 mm 3 mps 746 mmHg 84%
09:00 +25°C° 0.8 mm 3 mps 746 mmHg 80%
10:00 +26°C° 0 mm 4 mps 746 mmHg 77%
11:00 +26°C° 1.4 mm 4 mps 746 mmHg 76%
12:00 +27°C° 1.4 mm 4 mps 745 mmHg 75%
13:00 +27°C° 1.4 mm 4 mps 745 mmHg 75%
14:00 +27°C° 0.9 mm 4 mps 745 mmHg 75%
15:00 +27°C° 0.9 mm 4 mps 745 mmHg 75%
16:00 +26°C° 0 mm 4 mps 745 mmHg 74%
17:00 +25°C° 0.4 mm 3 mps 745 mmHg 78%
18:00 +25°C° 0.4 mm 3 mps 745 mmHg 81%
19:00 +25°C° 0.4 mm 2 mps 745 mmHg 85%
20:00 +24°C° 0.1 mm 2 mps 745 mmHg 87%
21:00 +23°C° 0.1 mm 2 mps 744 mmHg 89%
22:00 +20°C° 0.1 mm 2 mps 744 mmHg 91%
23:00 +20°C° 0 mm 2 mps 744 mmHg 92%

Tomorrow, 6 July, Monday

Time Temperature Precipitation Wind Pressure Humidity
00:00 +20°C° 0 mm 2 mps 744 mmHg 92%
01:00 +19°C° 0 mm 2 mps 744 mmHg 92%
02:00 +19°C° 0 mm 2 mps 744 mmHg 93%
03:00 +20°C° 0 mm 1 mps 745 mmHg 93%
04:00 +19°C° 0 mm 1 mps 745 mmHg 93%
05:00 +20°C° 0 mm 1 mps 745 mmHg 91%
06:00 +21°C° 0 mm 1 mps 745 mmHg 89%
07:00 +22°C° 0 mm 1 mps 745 mmHg 87%
08:00 +24°C° 0 mm 1 mps 745 mmHg 81%
09:00 +25°C° 0 mm 1 mps 745 mmHg 76%
10:00 +26°C° 0 mm 1 mps 745 mmHg 70%
11:00 +27°C° 0 mm 2 mps 745 mmHg 68%
12:00 +28°C° 0 mm 2 mps 745 mmHg 66%
13:00 +29°C° 0 mm 2 mps 745 mmHg 64%
14:00 +29°C° 0.1 mm 2 mps 745 mmHg 65%
15:00 +29°C° 0.1 mm 2 mps 745 mmHg 66%
16:00 +29°C° 0.1 mm 3 mps 745 mmHg 66%
17:00 +28°C° 0.9 mm 2 mps 745 mmHg 72%
18:00 +26°C° 0.9 mm 2 mps 745 mmHg 78%
19:00 +25°C° 0.9 mm 1 mps 744 mmHg 84%
20:00 +24°C° 0 mm 1 mps 745 mmHg 84%
21:00 +23°C° 0 mm 1 mps 745 mmHg 85%
22:00 +22°C° 0 mm 1 mps 745 mmHg 85%
23:00 +20°C° 0 mm 0 mps 745 mmHg 86%

Day after tomorrow, 7 July, Tuesday

Time Temperature Precipitation Wind Pressure Humidity
00:00 +19°C° 0 mm 0 mps 745 mmHg 87%
01:00 +19°C° 0 mm 0 mps 745 mmHg 88%
02:00 +19°C° 0 mm 0 mps 746 mmHg 89%
03:00 +18°C° 0 mm 0 mps 746 mmHg 89%
04:00 +18°C° 0 mm 0 mps 746 mmHg 90%
05:00 +19°C° 0 mm 0 mps 746 mmHg 88%
06:00 +22°C° 0 mm 1 mps 746 mmHg 86%
07:00 +24°C° 0 mm 1 mps 747 mmHg 84%
08:00 +25°C° 0 mm 1 mps 747 mmHg 80%
09:00 +26°C° 0 mm 1 mps 747 mmHg 76%
10:00 +27°C° 0 mm 2 mps 747 mmHg 72%
11:00 +28°C° 0 mm 2 mps 747 mmHg 69%
12:00 +29°C° 0 mm 2 mps 747 mmHg 66%
13:00 +29°C° 0 mm 2 mps 747 mmHg 62%
14:00 +30°C° 0.1 mm 2 mps 747 mmHg 62%
15:00 +30°C° 0.1 mm 2 mps 747 mmHg 61%
16:00 +30°C° 0.1 mm 2 mps 747 mmHg 61%
17:00 +30°C° 0.1 mm 2 mps 747 mmHg 65%
18:00 +29°C° 0.1 mm 1 mps 747 mmHg 68%
19:00 +29°C° 0.1 mm 1 mps 747 mmHg 72%
20:00 +27°C° 0 mm 1 mps 747 mmHg 76%
21:00 +25°C° 0 mm 1 mps 748 mmHg 80%
22:00 +24°C° 0 mm 1 mps 748 mmHg 84%
23:00 +23°C° 0 mm 1 mps 748 mmHg 85%

8 July, Wednesday

Time Temperature Precipitation Wind Pressure Humidity
00:00 +23°C° 0 mm 1 mps 748 mmHg 87%
01:00 +22°C° 0 mm 1 mps 748 mmHg 88%
02:00 +22°C° 0 mm 1 mps 748 mmHg 89%
03:00 +22°C° 0 mm 1 mps 749 mmHg 90%
04:00 +21°C° 0 mm 1 mps 749 mmHg 90%
05:00 +22°C° 0 mm 1 mps 749 mmHg 88%
06:00 +24°C° 0 mm 1 mps 749 mmHg 85%
07:00 +25°C° 0 mm 1 mps 749 mmHg 83%
08:00 +26°C° 0 mm 2 mps 750 mmHg 79%
09:00 +27°C° 0 mm 2 mps 750 mmHg 75%
10:00 +29°C° 0 mm 2 mps 750 mmHg 71%
11:00 +29°C° 0 mm 3 mps 750 mmHg 68%
12:00 +30°C° 0 mm 3 mps 750 mmHg 65%
13:00 +31°C° 0 mm 3 mps 750 mmHg 62%
14:00 +31°C° 0 mm 3 mps 750 mmHg 62%
15:00 +31°C° 0 mm 3 mps 750 mmHg 63%
16:00 +31°C° 0 mm 3 mps 749 mmHg 63%
17:00 +30°C° 0 mm 3 mps 749 mmHg 67%
18:00 +30°C° 0 mm 3 mps 749 mmHg 72%
19:00 +29°C° 0 mm 3 mps 749 mmHg 76%
20:00 +27°C° 0 mm 3 mps 749 mmHg 80%
21:00 +26°C° 0 mm 2 mps 749 mmHg 83%
22:00 +24°C° 0 mm 2 mps 749 mmHg 87%
23:00 +24°C° 0 mm 2 mps 749 mmHg 88%

9 July, Thursday

Time Temperature Precipitation Wind Pressure Humidity
00:00 +23°C° 0 mm 2 mps 749 mmHg 89%
01:00 +23°C° 0 mm 2 mps 750 mmHg 89%
02:00 +21°C° 0 mm 2 mps 750 mmHg 90%
03:00 +21°C° 0 mm 2 mps 750 mmHg 90%
04:00 +21°C° 0 mm 2 mps 750 mmHg 91%
05:00 +23°C° 0 mm 2 mps 750 mmHg 88%
06:00 +24°C° 0 mm 2 mps 750 mmHg 85%
07:00 +25°C° 0 mm 2 mps 750 mmHg 82%
08:00 +26°C° 0 mm 2 mps 750 mmHg 77%
09:00 +28°C° 0 mm 3 mps 750 mmHg 73%
10:00 +29°C° 0 mm 3 mps 750 mmHg 69%
11:00 +30°C° 0 mm 3 mps 750 mmHg 67%
12:00 +30°C° 0 mm 3 mps 750 mmHg 65%
13:00 +32°C° 0 mm 4 mps 750 mmHg 63%
14:00 +32°C° 0.1 mm 4 mps 749 mmHg 63%
15:00 +32°C° 0.1 mm 4 mps 749 mmHg 64%
16:00 +32°C° 0.1 mm 4 mps 749 mmHg 65%
17:00 +30°C° 0 mm 4 mps 748 mmHg 69%
18:00 +29°C° 0 mm 4 mps 748 mmHg 73%
19:00 +28°C° 0 mm 3 mps 748 mmHg 77%
20:00 +27°C° 0 mm 3 mps 748 mmHg 81%
21:00 +25°C° 0 mm 3 mps 748 mmHg 85%
22:00 +24°C° 0 mm 3 mps 748 mmHg 89%
23:00 +22°C° 0 mm 3 mps 748 mmHg 89%

10 July, Friday

Time Temperature Precipitation Wind Pressure Humidity
00:00 +22°C° 0 mm 3 mps 748 mmHg 88%
01:00 +21°C° 0 mm 3 mps 748 mmHg 88%
02:00 +21°C° 0 mm 3 mps 748 mmHg 88%
03:00 +20°C° 0 mm 3 mps 748 mmHg 87%
04:00 +20°C° 0 mm 3 mps 748 mmHg 86%
05:00 +20°C° 0 mm 3 mps 748 mmHg 83%
06:00 +21°C° 0 mm 3 mps 748 mmHg 81%
07:00 +22°C° 0 mm 3 mps 749 mmHg 78%
08:00 +23°C° 0 mm 4 mps 749 mmHg 74%
09:00 +25°C° 0 mm 4 mps 748 mmHg 71%
10:00 +27°C° 0 mm 4 mps 748 mmHg 67%
11:00 +28°C° 0 mm 4 mps 748 mmHg 64%
12:00 +28°C° 0 mm 5 mps 748 mmHg 61%
13:00 +29°C° 0 mm 5 mps 748 mmHg 57%
14:00 +29°C° 0 mm 5 mps 748 mmHg 58%
15:00 +29°C° 0 mm 4 mps 748 mmHg 58%
16:00 +29°C° 0 mm 4 mps 747 mmHg 58%
17:00 +29°C° 0 mm 4 mps 747 mmHg 63%
18:00 +28°C° 0 mm 3 mps 747 mmHg 68%
19:00 +27°C° 0 mm 3 mps 747 mmHg 73%
20:00 +26°C° 0 mm 3 mps 747 mmHg 77%
21:00 +24°C° 0 mm 3 mps 747 mmHg 81%
22:00 +23°C° 0 mm 2 mps 747 mmHg 85%
23:00 +21°C° 0 mm 2 mps 747 mmHg 86%
Show more